Location: Home
(40.5300°N, 105.0300°W)
Time: 20:10:37
(UTC-06:00)

STARLINK-2691 - Pass Details

Date: 22 June 2021
Orbit: 546 x 548 km, 53.1° (Epoch: 23 July)

Event Time Altitude Azimuth Distance (km) Brightness Sun altitude
Exits shadow 03:44:40 18° 170° (S) 1,372 5.3 -15.7°
Maximum altitude 03:46:35 25° 130° (SE) 1,115 5.1 -15.5°
Drops below altitude 10° 03:49:58 10° 74° (ENE) 1,809 7.1 -15.1°
Sets 03:52:28 0° 61° (ENE) 2,706 8.5 -14.8°
